Location: Melque
(41.0517°N, 4.4694°W)
Time: 16:38:23
(UTC+00:00)

Cosmos 2098 Rocket - Pass Details

Date: 11 December 2025
Orbit: 349 x 865 km, 82.9° (Epoch: 16 January)

Event Time Altitude Azimuth Distance (km) Brightness Sun altitude
Rises 17:28:31 0° 194° (SSW) 2,616 6.9 -7.4°
Reaches altitude 10° 17:30:30 10° 198° (SSW) 1,811 6.1 -7.7°
Maximum altitude 17:34:28 63° 280° (W) 688 3.6 -8.4°
Drops below altitude 10° 17:39:13 10° 1° (N) 2,154 5.6 -9.2°
Sets 17:41:45 0° 5° (N) 3,163 6.4 -9.7°
